OE3APM-13 Weather Reports


Display with metric or nautical units.
time (UTC)temp
F
wind
direction
speed
MPH
gust
MPH
rain 1hr
in
rain 24hr
in
rain mn
in
humidity
%
barometer
mb
20260902165757 73 306 2.0 3.0 0.00 0.00 0.00 49 1020.2
20260902165255 73 306 2.0 3.0 0.00 0.00 0.00 48 1020.3
20260902164753 73 304 1.0 3.0 0.00 0.00 0.00 48 1020.3
20260902164251 74 304 1.0 4.0 0.00 0.00 0.00 47 1020.2
20260902163749 74 304 2.0 4.0 0.00 0.00 0.00 47 1020.2
20260902163248 74 298 2.0 6.0 0.00 0.00 0.00 47 1020.2
20260902162749 75 294 3.0 6.0 0.00 0.00 0.00 45 1020.3
20260902162246 75 309 3.0 6.0 0.00 0.00 0.00 45 1020.3
20260902161745 76 289 3.0 6.0 0.00 0.00 0.00 44 1020.2
20260902161245 76 280 4.0 7.0 0.00 0.00 0.00 43 1020.2
20260902160745 77 281 4.0 7.0 0.00 0.00 0.00 43 1020.2
20260902160243 77 339 4.0 9.0 0.00 0.00 0.00 42 1020.2
20260902155741 78 277 4.0 9.0 0.00 0.00 0.00 41 1020.2
20260902155242 78 308 4.0 8.0 0.00 0.00 0.00 41 1020.2
20260902154741 78 286 3.0 7.0 0.00 0.00 0.00 40 1020.2
20260902154241 78 255 2.0 7.0 0.00 0.00 0.00 41 1020.2
20260902153740 78 258 3.0 7.0 0.00 0.00 0.00 42 1020.2
20260902153232 77 237 4.0 9.0 0.00 0.00 0.00 42 1020.3
20260902152733 77 274 5.0 9.0 0.00 0.00 0.00 42 1020.3
20260902152232 76 276 4.0 8.0 0.00 0.00 0.00 43 1020.3
20260902151730 76 330 4.0 8.0 0.00 0.00 0.00 42 1020.3
20260902151231 76 318 4.0 8.0 0.00 0.00 0.00 44 1020.4
20260902150730 75 5 5.0 9.0 0.00 0.00 0.00 44 1020.3
20260902150231 75 24 6.0 9.0 0.00 0.00 0.00 44 1020.3
20260902145731 75 317 5.0 9.0 0.00 0.00 0.00 44 1020.4
20260902145231 76 344 5.0 12.0 0.00 0.00 0.00 44 1020.4
20260902144733 76 323 4.0 12.0 0.00 0.00 0.00 43 1020.4
20260902144231 76 336 3.0 5.0 0.00 0.00 0.00 42 1020.5
20260902143732 76 347 3.0 6.0 0.00 0.00 0.00 42 1020.4
20260902143233 76 355 3.0 6.0 0.00 0.00 0.00 42 1020.5
20260902142730 77 351 3.0 6.0 0.00 0.00 0.00 42 1020.6
20260902142230 77 285 5.0 10.0 0.00 0.00 0.00 42 1020.5
20260902141732 77 302 4.0 10.0 0.00 0.00 0.00 42 1020.5
20260902141225 77 325 3.0 8.0 0.00 0.00 0.00 42 1020.5
20260902140723 77 326 4.0 6.0 0.00 0.00 0.00 42 1020.5
20260902140214 77 330 5.0 10.0 0.00 0.00 0.00 41 1020.6
20260902135716 77 333 5.0 10.0 0.00 0.00 0.00 41 1020.7
20260902135211 78 271 3.0 9.0 0.00 0.00 0.00 41 1020.7
20260902134710 78 262 3.0 8.0 0.00 0.00 0.00 40 1020.7
20260902134211 78 315 3.0 8.0 0.00 0.00 0.00 40 1020.7
20260902133708 78 280 3.0 7.0 0.00 0.00 0.00 42 1020.6
20260902133214 77 148 3.0 7.0 0.00 0.00 0.00 41 1020.7
20260902132708 77 140 2.0 6.0 0.00 0.00 0.00 42 1020.7
20260902132209 77 250 3.0 7.0 0.00 0.00 0.00 41 1020.8
20260902131712 76 255 4.0 8.0 0.00 0.00 0.00 43 1020.9
20260902131207 76 281 3.0 8.0 0.00 0.00 0.00 43 1021.0
20260902130707 76 277 3.0 7.0 0.00 0.00 0.00 42 1021.0
20260902130208 76 351 5.0 11.0 0.00 0.00 0.00 43 1021.0
20260902125706 76 330 4.0 11.0 0.00 0.00 0.00 42 1021.1
20260902125204 76 348 4.0 9.0 0.00 0.00 0.00 41 1021.1
20260902124705 76 355 5.0 9.0 0.00 0.00 0.00 41 1021.1
20260902124206 76 294 4.0 8.0 0.00 0.00 0.00 41 1021.2
20260902123703 76 317 5.0 9.0 0.00 0.00 0.00 41 1021.2
20260902123202 76 26 5.0 9.0 0.00 0.00 0.00 41 1021.2
20260902122702 76 345 5.0 9.0 0.00 0.00 0.00 43 1021.3
20260902122202 77 339 4.0 9.0 0.00 0.00 0.00 42 1021.3
20260902121704 77 301 4.0 11.0 0.00 0.00 0.00 41 1021.3
20260902121202 77 302 4.0 11.0 0.00 0.00 0.00 40 1021.4
20260902120703 77 312 3.0 7.0 0.00 0.00 0.00 40 1021.3
20260902120203 77 327 3.0 10.0 0.00 0.00 0.00 40 1021.4
20260902115702 77 281 5.0 11.0 0.00 0.00 0.00 40 1021.5
20260902115201 77 318 5.0 11.0 0.00 0.00 0.00 40 1021.6
20260902114702 78 324 5.0 11.0 0.00 0.00 0.00 39 1021.6
20260902114201 78 292 6.0 11.0 0.00 0.00 0.00 38 1021.6
20260902113703 78 312 6.0 11.0 0.00 0.00 0.00 37 1021.6
20260902113202 79 261 7.0 13.0 0.00 0.00 0.00 37 1021.7
20260902112702 79 248 6.0 13.0 0.00 0.00 0.00 37 1021.7
20260902112202 79 213 6.0 12.0 0.00 0.00 0.00 37 1021.8
20260902111658 78 211 5.0 12.0 0.00 0.00 0.00 38 1021.8
20260902111152 78 213 4.0 12.0 0.00 0.00 0.00 39 1021.7
20260902110654 78 204 4.0 12.0 0.00 0.00 0.00 40 1021.8
20260902110150 77 289 5.0 10.0 0.00 0.00 0.00 42 1022.0
20260902105650 77 279 5.0 10.0 0.00 0.00 0.00 40 1022.1
20260902105151 77 269 4.0 8.0 0.00 0.00 0.00 43 1022.1
20260902104650 78 314 5.0 11.0 0.00 0.00 0.00 42 1022.2
20260902104152 78 240 5.0 11.0 0.00 0.00 0.00 41 1022.1
20260902103650 78 346 4.0 10.0 0.00 0.00 0.00 41 1022.1
20260902103151 77 222 5.0 11.0 0.00 0.00 0.00 42 1022.2
20260902102651 77 282 6.0 11.0 0.00 0.00 0.00 41 1022.2
20260902102151 77 204 5.0 10.0 0.00 0.00 0.00 41 1022.2
20260902101651 77 274 5.0 10.0 0.00 0.00 0.00 42 1022.3
20260902101150 77 192 6.0 12.0 0.00 0.00 0.00 41 1022.3
20260902100652 76 271 5.0 12.0 0.00 0.00 0.00 42 1022.4
20260902100151 76 269 5.0 12.0 0.00 0.00 0.00 41 1022.4
20260902095646 76 227 6.0 12.0 0.00 0.00 0.00 41 1022.4
20260902095142 76 199 4.0 11.0 0.00 0.00 0.00 42 1022.4
20260902094638 76 270 4.0 8.0 0.00 0.00 0.00 42 1022.4
20260902094141 75 201 4.0 8.0 0.00 0.00 0.00 44 1022.5
20260902093637 75 258 5.0 9.0 0.00 0.00 0.00 45 1022.6
20260902093135 75 239 5.0 9.0 0.00 0.00 0.00 44 1022.5
20260902092637 75 252 5.0 10.0 0.00 0.00 0.00 44 1022.7
20260902092135 75 220 5.0 10.0 0.00 0.00 0.00 44 1022.7
20260902091632 75 232 4.0 10.0 0.00 0.00 0.00 45 1022.7
20260902091134 74 248 4.0 7.0 0.00 0.00 0.00 47 1022.6
20260902090632 74 208 3.0 7.0 0.00 0.00 0.00 46 1022.6
20260902090134 73 212 2.0 7.0 0.00 0.00 0.00 48 1022.6
20260902085630 73 211 3.0 7.0 0.00 0.00 0.00 47 1022.6
20260902085130 72 315 3.0 7.0 0.00 0.00 0.00 48 1022.7
20260902084630 72 327 3.0 6.0 0.00 0.00 0.00 49 1022.7
20260902084131 71 271 3.0 6.0 0.00 0.00 0.00 49 1022.8
20260902083629 71 229 3.0 6.0 0.00 0.00 0.00 52 1022.8
20260902083129 71 299 4.0 7.0 0.00 0.00 0.00 51 1022.8
20260902082619 70 246 3.0 7.0 0.00 0.00 0.00 52 1022.8
20260902082118 69 244 2.0 4.0 0.00 0.00 0.00 55 1022.9
20260902081620 69 322 2.0 5.0 0.00 0.00 0.00 55 1022.9
20260902081120 68 298 2.0 6.0 0.00 0.00 0.00 58 1022.9
20260902080618 68 304 2.0 6.0 0.00 0.00 0.00 59 1022.9
20260902080118 67 295 2.0 5.0 0.00 0.00 0.00 61 1022.9
20260902075618 67 280 2.0 5.0 0.00 0.00 0.00 62 1022.9
20260902075119 66 286 2.0 5.0 0.00 0.00 0.00 62 1022.8
20260902074616 66 257 1.0 4.0 0.00 0.00 0.00 64 1022.8
20260902074117 65 254 1.0 4.0 0.00 0.00 0.00 65 1022.7
20260902073616 65 238 1.0 4.0 0.00 0.00 0.00 67 1022.8
20260902073116 65 268 2.0 4.0 0.00 0.00 0.00 67 1022.8
20260902072616 64 264 1.0 3.0 0.00 0.00 0.00 69 1022.7
20260902072116 63 264 1.0 4.0 0.00 0.00 0.00 70 1022.8
20260902071618 63 272 2.0 4.0 0.00 0.00 0.00 71 1022.7
20260902071112 62 273 1.0 3.0 0.00 0.00 0.00 72 1022.7
20260902070611 62 273 1.0 4.0 0.00 0.00 0.00 74 1022.7
20260902070113 61 262 2.0 4.0 0.00 0.00 0.00 75 1022.7
20260902065608 60 263 1.0 4.0 0.00 0.00 0.00 76 1022.7
20260902065110 60 297 0.0 3.0 0.00 0.00 0.00 80 1022.7
20260902064608 59 15 0.0 2.0 0.00 0.00 0.00 84 1022.7
20260902064108 58 69 0.0 2.0 0.00 0.00 0.00 85 1022.7
20260902063604 57 67 0.0 2.0 0.00 0.00 0.00 85 1022.7
20260902063105 56 5 0.0 0.0 0.00 0.00 0.00 87 1022.6
20260902062605 55 5 0.0 0.0 0.00 0.00 0.00 88 1022.6
20260902062104 54 5 0.0 0.0 0.00 0.00 0.00 91 1022.7
20260902061603 53 5 0.0 0.0 0.00 0.00 0.00 93 1022.7
20260902061103 52 5 0.0 0.0 0.00 0.00 0.00 94 1022.6
20260902060602 52 5 0.0 0.0 0.00 0.00 0.00 94 1022.6
20260902060104 51 5 0.0 0.0 0.00 0.00 0.00 94 1022.6
20260902055549 51 5 0.0 0.0 0.00 0.00 0.00 94 1022.5
20260902055044 50 5 0.0 0.0 0.00 0.00 0.00 94 1022.5
20260902054544 50 5 0.0 0.0 0.00 0.00 0.00 94 1022.5
20260902054044 50 5 0.0 0.0 0.00 0.00 0.00 94 1022.4
20260902053547 49 5 0.0 0.0 0.00 0.00 0.00 94 1022.4
20260902053044 49 5 0.0 0.0 0.00 0.00 0.00 93 1022.3
20260902052542 48 5 0.0 0.0 0.00 0.00 0.00 93 1022.3
20260902052041 48 5 0.0 0.0 0.00 0.00 0.00 93 1022.3
20260902051538 47 5 0.0 0.0 0.00 0.00 0.00 92 1022.3
20260902051037 47 5 0.0 0.0 0.00 0.00 0.00 91 1022.3
20260902050548 47 5 0.0 0.0 0.00 0.00 0.00 91 1022.2
20260902050038 47 5 0.0 0.0 0.00 0.00 0.00 91 1022.3
20260902045537 47 5 0.0 0.0 0.00 0.00 0.00 91 1022.2
20260902045032 47 5 0.0 0.0 0.00 0.00 0.00 91 1022.2
20260902044534 47 5 0.0 0.0 0.00 0.00 0.00 90 1022.3
20260902044030 47 5 0.0 0.0 0.00 0.00 0.00 91 1022.3
20260902043530 47 5 0.0 0.0 0.00 0.00 0.00 90 1022.3
20260902043030 47 5 0.0 0.0 0.00 0.00 0.00 90 1022.3
20260902042530 47 5 0.0 0.0 0.00 0.00 0.00 90 1022.3
20260902042031 47 5 0.0 0.0 0.00 0.00 0.00 90 1022.3
20260902041530 47 5 0.0 0.0 0.00 0.00 0.00 89 1022.3
20260902041030 47 5 0.0 0.0 0.00 0.00 0.00 90 1022.3
20260902040534 47 5 0.0 0.0 0.00 0.00 0.00 90 1022.3
20260902040027 48 5 0.0 0.0 0.00 0.00 0.00 90 1022.3
20260902035527 48 5 0.0 0.0 0.00 0.00 0.00 90 1022.3
20260902035026 48 5 0.0 0.0 0.00 0.00 0.00 90 1022.3
20260902034526 48 5 0.0 0.0 0.00 0.00 0.00 90 1022.3
20260902034027 48 5 0.0 0.0 0.00 0.00 0.00 90 1022.3
20260902033526 48 5 0.0 0.0 0.00 0.00 0.00 90 1022.3
20260902033029 48 5 0.0 0.0 0.00 0.00 0.00 90 1022.3
20260902032524 48 5 0.0 0.0 0.00 0.00 0.00 90 1022.3
20260902032024 48 5 0.0 1.0 0.00 0.00 0.00 90 1022.3
20260902031518 48 5 0.0 1.0 0.00 0.00 0.00 90 1022.3
20260902031018 48 5 0.0 0.0 0.00 0.00 0.00 90 1022.4
20260902030519 48 5 0.0 0.0 0.00 0.00 0.00 89 1022.3
20260902030018 48 5 0.0 0.0 0.00 0.00 0.00 89 1022.4
20260902025518 48 5 0.0 0.0 0.00 0.00 0.00 89 1022.4
20260902025018 49 5 0.0 0.0 0.00 0.00 0.00 89 1022.3
20260902024518 49 5 0.0 0.0 0.00 0.00 0.00 89 1022.4
20260902024017 49 5 0.0 0.0 0.00 0.00 0.00 89 1022.4
20260902023520 49 5 0.0 0.0 0.00 0.00 0.00 89 1022.4
20260902023015 49 5 0.0 0.0 0.00 0.00 0.00 89 1022.3
20260902022514 49 5 0.0 0.0 0.00 0.00 0.00 89 1022.3
20260902022015 49 5 0.0 0.0 0.00 0.00 0.00 90 1022.3
20260902021514 49 5 0.0 0.0 0.00 0.00 0.00 90 1022.3
20260902021014 49 5 0.0 0.0 0.00 0.00 0.00 90 1022.3
20260902020514 49 5 0.0 0.0 0.00 0.00 0.00 90 1022.3
20260902020014 49 5 0.0 0.0 0.00 0.00 0.00 90 1022.3
20260902015514 49 5 0.0 0.0 0.00 0.00 0.00 90 1022.3
20260902015015 49 5 0.0 0.0 0.00 0.00 0.00 90 1022.3
20260902014509 49 5 0.0 0.0 0.00 0.00 0.00 90 1022.4
20260902014003 49 5 0.0 0.0 0.00 0.00 0.00 90 1022.4
20260902013504 49 5 0.0 0.0 0.00 0.00 0.00 90 1022.4
20260902013003 49 5 0.0 0.0 0.00 0.00 0.00 90 1022.4
20260902012502 49 5 0.0 2.0 0.00 0.00 0.00 90 1022.4
20260902012003 49 5 1.0 3.0 0.00 0.00 0.00 90 1022.4
20260902011502 49 5 1.0 3.0 0.00 0.00 0.00 90 1022.3
20260902011009 49 5 0.0 2.0 0.00 0.00 0.00 89 1022.3
20260902010503 49 5 0.0 0.0 0.00 0.00 0.00 89 1022.3
20260902010002 49 5 0.0 0.0 0.00 0.00 0.00 89 1022.4
20260902005502 49 5 0.0 0.0 0.00 0.00 0.00 89 1022.4
20260902005000 49 5 0.0 0.0 0.00 0.00 0.00 89 1022.4
20260902004500 49 5 0.0 2.0 0.00 0.00 0.00 88 1022.5
20260902003957 49 5 1.0 2.0 0.00 0.00 0.00 88 1022.5
20260902003457 49 5 0.0 2.0 0.00 0.00 0.00 88 1022.5
20260902002958 49 5 0.0 0.0 0.00 0.00 0.00 88 1022.5
20260902002455 49 5 0.0 0.0 0.00 0.00 0.00 88 1022.5
20260902001954 49 5 0.0 0.0 0.00 0.00 0.00 88 1022.6
20260902001453 49 5 0.0 0.0 0.00 0.00 0.00 88 1022.5
20260902000953 49 5 0.0 0.0 0.00 0.00 0.00 87 1022.5
20260902000448 49 5 0.0 1.0 0.00 0.00 0.00 87 1022.5
20260901235943 49 5 1.0 3.0 0.00 0.00 0.00 87 1022.5
20260901235444 49 5 1.0 3.0 0.00 0.00 0.00 87 1022.5
20260901234942 49 5 2.0 3.0 0.00 0.00 0.00 87 1022.5
20260901234438 49 5 1.0 2.0 0.00 0.00 0.00 87 1022.5
20260901233938 49 5 1.0 2.0 0.00 0.00 0.00 87 1022.5
20260901233439 50 5 1.0 2.0 0.00 0.00 0.00 87 1022.4
20260901232936 50 5 0.0 2.0 0.00 0.00 0.00 87 1022.4
20260901232437 50 5 0.0 0.0 0.00 0.00 0.00 86 1022.5
20260901231936 50 5 0.0 0.0 0.00 0.00 0.00 85 1022.5
20260901231439 50 5 0.0 0.0 0.00 0.00 0.00 86 1022.5
20260901230932 50 5 0.0 0.0 0.00 0.00 0.00 85 1022.5
20260901230431 50 5 0.0 0.0 0.00 0.00 0.00 85 1022.6
20260901225930 50 5 0.0 0.0 0.00 0.00 0.00 85 1022.6
20260901225432 50 5 0.0 0.0 0.00 0.00 0.00 85 1022.6
20260901224930 51 5 0.0 0.0 0.00 0.00 0.00 85 1022.7
20260901224432 51 5 0.0 0.0 0.00 0.00 0.00 85 1022.7
20260901223935 51 5 0.0 0.0 0.00 0.00 0.00 86 1022.7
20260901223421 51 5 1.0 2.0 0.00 0.00 0.00 86 1022.7
20260901222916 51 5 1.0 2.0 0.00 0.00 0.00 87 1022.8
20260901222416 51 5 1.0 3.0 0.00 0.00 0.00 87 1022.7
20260901221915 50 5 2.0 3.0 0.00 0.00 0.00 86 1022.7
20260901221410 50 339 2.0 3.0 0.00 0.00 0.00 86 1022.7
20260901220911 50 327 2.0 3.0 0.00 0.00 0.00 85 1022.7
20260901220407 50 327 1.0 3.0 0.00 0.00 0.00 85 1022.7
20260901215910 51 326 0.0 0.0 0.00 0.00 0.00 85 1022.7
20260901215404 51 326 0.0 0.0 0.00 0.00 0.00 85 1022.6
20260901214907 51 326 0.0 0.0 0.00 0.00 0.00 85 1022.7
20260901214402 51 326 0.0 0.0 0.00 0.00 0.00 85 1022.7
20260901213907 51 326 0.0 0.0 0.00 0.00 0.00 84 1022.8
20260901213402 51 326 0.0 0.0 0.00 0.00 0.00 81 1022.8
20260901212908 51 326 0.0 0.0 0.00 0.00 0.00 82 1022.7
20260901212403 51 326 0.0 0.0 0.00 0.00 0.00 81 1022.7
20260901211905 51 326 0.0 0.0 0.00 0.00 0.00 81 1022.6
20260901211401 51 326 0.0 0.0 0.00 0.00 0.00 81 1022.7
20260901210905 52 326 0.0 0.0 0.00 0.00 0.00 82 1022.6
20260901210403 52 326 0.0 0.0 0.00 0.00 0.00 81 1022.7
20260901205909 52 326 0.0 0.0 0.00 0.00 0.00 81 1022.6
20260901205358 52 326 0.0 0.0 0.00 0.00 0.00 81 1022.6
20260901204856 53 326 0.0 0.0 0.00 0.00 0.00 80 1022.6
20260901204353 53 326 0.0 0.0 0.00 0.00 0.00 80 1022.6
20260901203852 53 326 0.0 0.0 0.00 0.00 0.00 80 1022.6
20260901203349 53 326 0.0 0.0 0.00 0.00 0.00 80 1022.5
20260901202847 53 326 0.0 0.0 0.00 0.00 0.00 79 1022.5
20260901202347 53 326 0.0 0.0 0.00 0.00 0.00 78 1022.5
20260901201846 54 326 0.0 0.0 0.00 0.00 0.00 78 1022.5
20260901201346 54 326 0.0 0.0 0.00 0.00 0.00 78 1022.4
20260901200844 54 326 0.0 0.0 0.00 0.00 0.00 78 1022.4
20260901200344 54 326 0.0 0.0 0.00 0.00 0.00 77 1022.4
20260901195842 55 326 0.0 0.0 0.00 0.00 0.00 77 1022.4
20260901195336 55 326 0.0 0.0 0.00 0.00 0.00 77 1022.4
20260901194834 55 326 0.0 0.0 0.00 0.00 0.00 76 1022.4
20260901194336 56 326 0.0 0.0 0.00 0.00 0.00 76 1022.3
20260901193834 56 326 0.0 0.0 0.00 0.00 0.00 75 1022.3
20260901193334 56 326 0.0 0.0 0.00 0.00 0.00 75 1022.3
20260901192831 57 326 0.0 0.0 0.00 0.00 0.00 74 1022.3
20260901192331 57 326 0.0 0.0 0.00 0.00 0.00 74 1022.3
20260901191831 57 326 0.0 0.0 0.00 0.00 0.00 74 1022.2
20260901191330 58 326 0.0 0.0 0.00 0.00 0.00 73 1022.2
20260901190823 58 326 0.0 0.0 0.00 0.00 0.00 73 1022.2
20260901190320 59 326 0.0 0.0 0.00 0.00 0.00 73 1022.1
20260901185822 59 326 0.0 0.0 0.00 0.00 0.00 72 1022.1
20260901185320 59 326 0.0 0.0 0.00 0.00 0.00 72 1022.0
20260901184820 60 326 0.0 0.0 0.00 0.00 0.00 72 1022.0
20260901184317 60 326 0.0 0.0 0.00 0.00 0.00 70 1021.8
20260901183817 61 326 0.0 0.0 0.00 0.00 0.00 69 1021.8
20260901183313 62 326 0.0 0.0 0.00 0.00 0.00 68 1021.7
20260901182812 62 326 0.0 0.0 0.00 0.00 0.00 67 1021.6
20260901182312 63 326 0.0 0.0 0.00 0.00 0.00 66 1021.6
20260901181809 64 326 0.0 0.0 0.00 0.00 0.00 64 1021.5
20260901181308 64 326 0.0 0.0 0.00 0.00 0.00 63 1021.5
20260901180806 65 326 0.0 0.0 0.00 0.00 0.00 61 1021.4
20260901180304 66 326 0.0 0.0 0.00 0.00 0.00 59 1021.4
20260901175802 66 326 0.0 0.0 0.00 0.00 0.00 58 1021.3
20260901175305 67 326 0.0 0.0 0.00 0.00 0.00 60 1021.3
20260901174802 67 326 0.0 2.0 0.00 0.00 0.00 59 1021.2
20260901174303 68 326 1.0 3.0 0.00 0.00 0.00 55 1021.2
20260901173801 68 326 2.0 4.0 0.00 0.00 0.00 53 1021.2
20260901173259 68 326 3.0 5.0 0.00 0.00 0.00 52 1021.2
20260901172800 69 321 3.0 8.0 0.00 0.00 0.00 52 1021.2
20260901172254 69 315 2.0 8.0 0.00 0.00 0.00 51 1021.2
20260901171745 69 306 3.0 8.0 0.00 0.00 0.00 51 1021.2
20260901171234 69 323 3.0 8.0 0.00 0.00 0.00 50 1021.1
20260901170733 70 310 3.0 7.0 0.00 0.00 0.00 49 1021.2
20260901170230 70 321 4.0 7.0 0.00 0.00 0.00 49 1021.2